N474KC SCSE-SCCF

Flight info

Callsign N474KC
Flight time 2h 3m
Altitude 26000
Route KILIN1J KILIN UQ802 PUNAP UT296 PAGUN UQ814 MARGU MARGU3A
Aircraft PC12/L-SDFGRWY/S

Departure

Time 2026-05-05 19:11
Airport La Florida Airport (SCSE)

Arrival

Time 2026-05-05 21:14
Airport El Loa Airport (SCCF)
Time Latitude Longitude Altitude Speed Heading
2026-05-05 19:11 -29.89741 -71.23804 1289 ft 153 kts 302°
2026-05-05 19:11 -29.89150 -71.24891 1515 ft 166 kts 303°
2026-05-05 19:12 -29.88511 -71.26037 1805 ft 173 kts 303°
2026-05-05 19:12 -29.87846 -71.27212 2110 ft 177 kts 304°
2026-05-05 19:12 -29.87162 -71.28402 2428 ft 179 kts 305°
2026-05-05 19:12 -29.86468 -71.29597 2741 ft 180 kts 306°
2026-05-05 19:13 -29.85766 -71.30797 3044 ft 181 kts 306°
2026-05-05 19:13 -29.85057 -71.32006 3363 ft 181 kts 306°
2026-05-05 19:13 -29.84356 -71.33198 3703 ft 182 kts 306°
2026-05-05 19:13 -29.83634 -71.34424 4112 ft 183 kts 307°
2026-05-05 19:14 -29.82929 -71.35617 4497 ft 182 kts 307°
2026-05-05 19:14 -29.82203 -71.36840 4746 ft 187 kts 307°
2026-05-05 19:14 -29.81461 -71.38084 4991 ft 189 kts 307°
2026-05-05 19:14 -29.80713 -71.39332 5229 ft 190 kts 307°
2026-05-05 19:15 -29.79953 -71.40573 5474 ft 187 kts 313°
2026-05-05 19:15 -29.78835 -71.41238 5727 ft 184 kts 350°
2026-05-05 19:15 -29.77569 -71.41138 5979 ft 185 kts 17°
2026-05-05 19:15 -29.76499 -71.40317 6233 ft 189 kts 46°
2026-05-05 19:16 -29.75852 -71.38985 6481 ft 193 kts 63°
2026-05-05 19:16 -29.75504 -71.38043 6634 ft 193 kts 63°
2026-05-05 19:16 -29.74970 -71.36623 6864 ft 193 kts 62°
2026-05-05 19:16 -29.74420 -71.35207 7097 ft 194 kts 62°
2026-05-05 19:17 -29.73864 -71.33790 7330 ft 195 kts 62°
2026-05-05 19:17 -29.73126 -71.31902 7644 ft 196 kts 61°
2026-05-05 19:17 -29.72565 -71.30463 7885 ft 197 kts 61°
2026-05-05 19:17 -29.72192 -71.29508 8042 ft 197 kts 61°
2026-05-05 19:18 -29.71630 -71.28069 8280 ft 197 kts 61°
2026-05-05 19:18 -29.71073 -71.26643 8520 ft 195 kts 61°
2026-05-05 19:18 -29.70516 -71.25222 8771 ft 195 kts 60°
2026-05-05 19:18 -29.69961 -71.23802 9014 ft 195 kts 60°
2026-05-05 19:19 -29.69402 -71.22376 9261 ft 196 kts 60°
2026-05-05 19:19 -29.68843 -71.20946 9512 ft 196 kts 60°
2026-05-05 19:19 -29.68284 -71.19521 9762 ft 196 kts 60°
2026-05-05 19:19 -29.67724 -71.18093 10002 ft 196 kts 60°
2026-05-05 19:20 -29.67140 -71.16670 10241 ft 195 kts 52°
2026-05-05 19:20 -29.66186 -71.15645 10476 ft 186 kts 23°
2026-05-05 19:20 -29.64991 -71.15135 10713 ft 182 kts 13°
2026-05-05 19:20 -29.63783 -71.14678 10944 ft 183 kts 14°
2026-05-05 19:21 -29.62574 -71.14215 11181 ft 183 kts 14°
2026-05-05 19:21 -29.61364 -71.13751 11386 ft 185 kts 14°
2026-05-05 19:21 -29.60128 -71.13278 11577 ft 189 kts 14°
2026-05-05 19:21 -29.58872 -71.12797 11772 ft 192 kts 14°
2026-05-05 19:22 -29.57595 -71.12308 11962 ft 194 kts 13°
2026-05-05 19:22 -29.56319 -71.11819 12160 ft 196 kts 13°
2026-05-05 19:22 -29.55017 -71.11321 12350 ft 198 kts 13°
2026-05-05 19:22 -29.53712 -71.10821 12548 ft 198 kts 13°
2026-05-05 19:23 -29.52402 -71.10321 12744 ft 199 kts 13°
2026-05-05 19:23 -29.51085 -71.09818 12940 ft 199 kts 13°
2026-05-05 19:23 -29.49761 -71.09312 13141 ft 201 kts 13°
2026-05-05 19:23 -29.48433 -71.08804 13345 ft 202 kts 13°
2026-05-05 19:24 -29.47099 -71.08295 13549 ft 202 kts 13°
2026-05-05 19:24 -29.45764 -71.07786 13749 ft 202 kts 13°
2026-05-05 19:24 -29.44428 -71.07276 13944 ft 202 kts 13°
2026-05-05 19:24 -29.43095 -71.06768 14118 ft 202 kts 13°
2026-05-05 19:25 -29.41762 -71.06259 14301 ft 201 kts 12°
2026-05-05 19:25 -29.40434 -71.05753 14484 ft 201 kts 12°
2026-05-05 19:25 -29.39117 -71.05251 14670 ft 202 kts 12°
2026-05-05 19:25 -29.37781 -71.04743 14855 ft 202 kts 12°
2026-05-05 19:26 -29.36445 -71.04233 15037 ft 203 kts 12°
2026-05-05 19:26 -29.35106 -71.03724 15225 ft 203 kts 12°
2026-05-05 19:26 -29.33764 -71.03213 15416 ft 202 kts 12°
2026-05-05 19:26 -29.32427 -71.02704 15608 ft 203 kts 11°
2026-05-05 19:27 -29.31085 -71.02194 15800 ft 203 kts 11°
2026-05-05 19:27 -29.29738 -71.01681 15994 ft 204 kts 11°
2026-05-05 19:27 -29.28382 -71.01166 16192 ft 206 kts 11°
2026-05-05 19:27 -29.27020 -71.00657 16384 ft 205 kts
2026-05-05 19:28 -29.25640 -71.00453 16583 ft 199 kts 357°
2026-05-05 19:28 -29.24258 -71.00335 16780 ft 200 kts 357°
2026-05-05 19:28 -29.22885 -71.00206 16979 ft 200 kts 358°
2026-05-05 19:28 -29.21494 -71.00070 17179 ft 201 kts 358°
2026-05-05 19:29 -29.20100 -70.99934 17382 ft 201 kts 357°
2026-05-05 19:29 -29.18708 -70.99799 17589 ft 201 kts 357°
2026-05-05 19:29 -29.17313 -70.99664 17783 ft 201 kts 357°
2026-05-05 19:29 -29.15899 -70.99528 18000 ft 201 kts 357°
2026-05-05 19:30 -29.14518 -70.99394 18198 ft 202 kts 356°
2026-05-05 19:30 -29.13123 -70.99258 18390 ft 200 kts 356°
2026-05-05 19:30 -29.11737 -70.99124 18571 ft 199 kts 356°
2026-05-05 19:30 -29.10357 -70.98992 18751 ft 199 kts 356°
2026-05-05 19:31 -29.08975 -70.98848 18933 ft 200 kts
2026-05-05 19:31 -29.07662 -70.98203 19122 ft 209 kts 19°
2026-05-05 19:31 -29.06366 -70.97491 19318 ft 204 kts 11°
2026-05-05 19:31 -29.05039 -70.96914 19496 ft 204 kts 10°
2026-05-05 19:32 -29.03714 -70.96352 19688 ft 203 kts
2026-05-05 19:32 -29.02392 -70.95793 19876 ft 202 kts
2026-05-05 19:32 -29.01065 -70.95239 20063 ft 203 kts
2026-05-05 19:32 -28.99725 -70.94760 20252 ft 200 kts
2026-05-05 19:33 -28.98375 -70.94373 20445 ft 200 kts
2026-05-05 19:33 -28.97064 -70.94382 20658 ft 183 kts 340°
2026-05-05 19:33 -28.95800 -70.94602 20854 ft 187 kts 346°
2026-05-05 19:33 -28.94475 -70.94612 21010 ft 193 kts 352°
2026-05-05 19:34 -28.93123 -70.94529 21162 ft 196 kts 353°
2026-05-05 19:34 -28.91772 -70.94443 21306 ft 198 kts 352°
2026-05-05 19:34 -28.90371 -70.94367 21460 ft 201 kts 352°
2026-05-05 19:35 -28.87564 -70.94219 21757 ft 205 kts 352°
2026-05-05 19:35 -28.86127 -70.94143 21909 ft 208 kts 352°
2026-05-05 19:35 -28.84678 -70.94065 22063 ft 209 kts 352°
2026-05-05 19:35 -28.83222 -70.93987 22216 ft 209 kts 352°
2026-05-05 19:36 -28.81759 -70.93908 22375 ft 210 kts 352°
2026-05-05 19:36 -28.80292 -70.93830 22526 ft 211 kts 352°
2026-05-05 19:36 -28.78822 -70.93752 22679 ft 212 kts 352°
2026-05-05 19:36 -28.77346 -70.93673 22836 ft 212 kts 352°
2026-05-05 19:37 -28.75871 -70.93595 22992 ft 211 kts 352°
2026-05-05 19:37 -28.74410 -70.93516 23150 ft 209 kts 352°
2026-05-05 19:37 -28.72947 -70.93440 23306 ft 212 kts 352°
2026-05-05 19:37 -28.71465 -70.93363 23433 ft 214 kts 352°
2026-05-05 19:38 -28.69969 -70.93283 23564 ft 216 kts 352°
2026-05-05 19:38 -28.68488 -70.93203 23679 ft 216 kts 352°
2026-05-05 19:38 -28.66985 -70.93123 23788 ft 216 kts 352°
2026-05-05 19:38 -28.65486 -70.93043 23905 ft 215 kts 352°
2026-05-05 19:39 -28.63994 -70.92964 24012 ft 215 kts 352°
2026-05-05 19:39 -28.62503 -70.92885 24123 ft 214 kts 352°
2026-05-05 19:39 -28.61015 -70.92806 24238 ft 214 kts 352°
2026-05-05 19:39 -28.59528 -70.92728 24348 ft 214 kts 352°
2026-05-05 19:40 -28.58042 -70.92649 24463 ft 213 kts 352°
2026-05-05 19:40 -28.56557 -70.92571 24579 ft 214 kts 352°
2026-05-05 19:40 -28.55061 -70.92493 24695 ft 216 kts 351°
2026-05-05 19:40 -28.53557 -70.92413 24814 ft 217 kts 352°
2026-05-05 19:41 -28.52050 -70.92333 24924 ft 217 kts 351°
2026-05-05 19:41 -28.50541 -70.92253 25038 ft 217 kts 351°
2026-05-05 19:41 -28.49030 -70.92173 25150 ft 217 kts 351°
2026-05-05 19:41 -28.47520 -70.92093 25263 ft 217 kts 351°
2026-05-05 19:42 -28.46013 -70.92014 25381 ft 217 kts 351°
2026-05-05 19:42 -28.44509 -70.91934 25502 ft 216 kts 351°
2026-05-05 19:42 -28.43004 -70.91855 25579 ft 217 kts 351°
2026-05-05 19:42 -28.41487 -70.91777 25629 ft 221 kts 351°
2026-05-05 19:43 -28.39936 -70.91695 25676 ft 224 kts 351°
2026-05-05 19:43 -28.38373 -70.91612 25728 ft 226 kts 352°
2026-05-05 19:43 -28.36793 -70.91529 25777 ft 229 kts 352°
2026-05-05 19:43 -28.35217 -70.91445 25820 ft 230 kts 352°
2026-05-05 19:44 -28.33612 -70.91360 25867 ft 232 kts 352°
2026-05-05 19:44 -28.32002 -70.91275 25912 ft 231 kts 352°
2026-05-05 19:44 -28.30392 -70.91190 25964 ft 232 kts 352°
2026-05-05 19:44 -28.28774 -70.91107 26018 ft 233 kts 353°
2026-05-05 19:45 -28.27135 -70.90908 26011 ft 246 kts
2026-05-05 19:45 -28.25535 -70.90041 26015 ft 260 kts 17°
2026-05-05 19:45 -28.23959 -70.89004 26015 ft 263 kts 19°
2026-05-05 19:45 -28.22371 -70.87955 26012 ft 264 kts 18°
2026-05-05 19:46 -28.20774 -70.86933 26010 ft 264 kts 18°
2026-05-05 19:46 -28.19167 -70.85914 26010 ft 265 kts 18°
2026-05-05 19:46 -28.17558 -70.84885 26011 ft 266 kts 18°
2026-05-05 19:46 -28.15947 -70.83852 26013 ft 266 kts 18°
2026-05-05 19:47 -28.14333 -70.82819 26009 ft 267 kts 18°
2026-05-05 19:47 -28.12715 -70.81785 26013 ft 267 kts 18°
2026-05-05 19:47 -28.11095 -70.80750 26011 ft 267 kts 18°
2026-05-05 19:47 -28.09475 -70.79715 26010 ft 267 kts 18°
2026-05-05 19:48 -28.07875 -70.78693 26015 ft 267 kts 18°
2026-05-05 19:48 -28.06254 -70.77659 26014 ft 268 kts 18°
2026-05-05 19:48 -28.04623 -70.76618 26013 ft 269 kts 18°
2026-05-05 19:48 -28.02995 -70.75579 26010 ft 269 kts 18°
2026-05-05 19:49 -28.01369 -70.74541 26014 ft 268 kts 18°
2026-05-05 19:49 -28.00268 -70.73840 26016 ft 269 kts 18°
2026-05-05 19:49 -27.98106 -70.72463 26013 ft 269 kts 18°
2026-05-05 19:49 -27.96477 -70.71424 26013 ft 269 kts 18°
2026-05-05 19:50 -27.94847 -70.70387 26012 ft 269 kts 18°
2026-05-05 19:50 -27.93215 -70.69348 26009 ft 269 kts 18°
2026-05-05 19:50 -27.91581 -70.68308 26008 ft 269 kts 18°
2026-05-05 19:50 -27.89945 -70.67267 26009 ft 270 kts 18°
2026-05-05 19:51 -27.88307 -70.66226 26008 ft 270 kts 18°
2026-05-05 19:51 -27.86675 -70.65188 26012 ft 270 kts 18°
2026-05-05 19:51 -27.85058 -70.64161 26009 ft 270 kts 18°
2026-05-05 19:51 -27.83422 -70.63122 26011 ft 270 kts 18°
2026-05-05 19:52 -27.81783 -70.62081 26009 ft 270 kts 18°
2026-05-05 19:52 -27.80143 -70.61040 26008 ft 270 kts 18°
2026-05-05 19:52 -27.78504 -70.60000 26009 ft 270 kts 18°
2026-05-05 19:52 -27.76857 -70.58955 26011 ft 271 kts 18°
2026-05-05 19:53 -27.75214 -70.57913 26013 ft 271 kts 18°
2026-05-05 19:53 -27.73567 -70.56869 26014 ft 271 kts 18°
2026-05-05 19:53 -27.71916 -70.55824 26011 ft 272 kts 18°
2026-05-05 19:53 -27.70286 -70.54791 26009 ft 272 kts 18°
2026-05-05 19:54 -27.68632 -70.53744 26011 ft 272 kts 18°
2026-05-05 19:54 -27.66984 -70.52700 26010 ft 272 kts 18°
2026-05-05 19:54 -27.65327 -70.51651 26010 ft 272 kts 18°
2026-05-05 19:54 -27.63674 -70.50606 26011 ft 272 kts 18°
2026-05-05 19:55 -27.62020 -70.49560 26009 ft 272 kts 18°
2026-05-05 19:55 -27.60364 -70.48514 26011 ft 273 kts 18°
2026-05-05 19:55 -27.58712 -70.47469 26012 ft 272 kts 18°
2026-05-05 19:55 -27.57059 -70.46425 26010 ft 272 kts 18°
2026-05-05 19:56 -27.55409 -70.45383 26008 ft 272 kts 18°
2026-05-05 19:56 -27.53757 -70.44340 26011 ft 272 kts 18°
2026-05-05 19:56 -27.52112 -70.43303 26013 ft 272 kts 18°
2026-05-05 19:56 -27.50455 -70.42258 26012 ft 272 kts 18°
2026-05-05 19:57 -27.48820 -70.41226 26010 ft 272 kts 18°
2026-05-05 19:57 -27.47706 -70.40524 26014 ft 272 kts 18°
2026-05-05 19:57 -27.45519 -70.39146 26016 ft 272 kts 19°
2026-05-05 19:57 -27.43874 -70.38109 26014 ft 271 kts 18°
2026-05-05 19:58 -27.42232 -70.37073 26010 ft 270 kts 18°
2026-05-05 19:58 -27.40594 -70.36042 26015 ft 269 kts 18°
2026-05-05 19:58 -27.38969 -70.35019 26017 ft 266 kts 19°
2026-05-05 19:58 -27.37355 -70.34002 26013 ft 264 kts 18°
2026-05-05 19:59 -27.35752 -70.32997 26021 ft 265 kts 18°
2026-05-05 19:59 -27.34138 -70.31984 26023 ft 266 kts 18°
2026-05-05 19:59 -27.32536 -70.30977 26022 ft 267 kts 18°
2026-05-05 19:59 -27.30911 -70.29955 26019 ft 268 kts 18°
2026-05-05 20:00 -27.29278 -70.28929 26020 ft 269 kts 18°
2026-05-05 20:00 -27.27645 -70.27904 26012 ft 269 kts 18°
2026-05-05 20:00 -27.26008 -70.26877 26010 ft 270 kts 18°
2026-05-05 20:00 -27.24368 -70.25848 26008 ft 270 kts 18°
2026-05-05 20:01 -27.22729 -70.24819 26006 ft 269 kts 19°
2026-05-05 20:01 -27.21095 -70.23794 26007 ft 267 kts 19°
2026-05-05 20:01 -27.19484 -70.22783 26015 ft 265 kts 19°
2026-05-05 20:01 -27.17872 -70.21774 26014 ft 265 kts 18°
2026-05-05 20:02 -27.16256 -70.20763 26016 ft 266 kts 18°
2026-05-05 20:02 -27.14632 -70.19747 26008 ft 268 kts 19°
2026-05-05 20:02 -27.13554 -70.19072 26011 ft 268 kts 19°
2026-05-05 20:02 -27.11395 -70.17720 26009 ft 268 kts 19°
2026-05-05 20:03 -27.09759 -70.16697 26005 ft 269 kts 19°
2026-05-05 20:03 -27.08125 -70.15675 26005 ft 269 kts 19°
2026-05-05 20:03 -27.07040 -70.14997 26004 ft 270 kts 19°
2026-05-05 20:03 -27.05402 -70.13973 26005 ft 269 kts 19°
2026-05-05 20:04 -27.03760 -70.12948 26001 ft 270 kts 19°
2026-05-05 20:04 -27.02115 -70.11920 26002 ft 270 kts 19°
2026-05-05 20:04 -27.00474 -70.10895 26001 ft 270 kts 19°
2026-05-05 20:04 -26.98830 -70.09870 26002 ft 270 kts 19°
2026-05-05 20:05 -26.97189 -70.08846 26001 ft 270 kts 19°
2026-05-05 20:05 -26.95547 -70.07822 26004 ft 270 kts 19°
2026-05-05 20:05 -26.93906 -70.06799 26006 ft 270 kts 19°
2026-05-05 20:05 -26.92264 -70.05775 26007 ft 270 kts 19°
2026-05-05 20:06 -26.90621 -70.04752 26007 ft 270 kts 19°
2026-05-05 20:06 -26.88978 -70.03729 26004 ft 270 kts 19°
2026-05-05 20:06 -26.87327 -70.02701 26002 ft 270 kts 19°
2026-05-05 20:06 -26.85707 -70.01692 26006 ft 270 kts 19°
2026-05-05 20:07 -26.84062 -70.00669 26009 ft 270 kts 19°
2026-05-05 20:07 -26.82418 -69.99647 26007 ft 271 kts 19°
2026-05-05 20:07 -26.80766 -69.98620 26008 ft 271 kts 19°
2026-05-05 20:07 -26.79113 -69.97592 26006 ft 272 kts 19°
2026-05-05 20:08 -26.77460 -69.96565 26010 ft 272 kts 19°
2026-05-05 20:08 -26.75804 -69.95536 26010 ft 272 kts 19°
2026-05-05 20:08 -26.74148 -69.94508 26012 ft 272 kts 19°
2026-05-05 20:08 -26.72490 -69.93479 26011 ft 273 kts 19°
2026-05-05 20:09 -26.70830 -69.92449 26010 ft 273 kts 19°
2026-05-05 20:09 -26.69172 -69.91420 26015 ft 273 kts 19°
2026-05-05 20:09 -26.67513 -69.90391 26018 ft 273 kts 18°
2026-05-05 20:09 -26.65851 -69.89362 26016 ft 273 kts 18°
2026-05-05 20:10 -26.64188 -69.88331 26019 ft 274 kts 18°
2026-05-05 20:10 -26.62540 -69.87311 26019 ft 274 kts 18°
2026-05-05 20:10 -26.60852 -69.86264 26016 ft 273 kts 18°
2026-05-05 20:10 -26.59218 -69.85251 26029 ft 272 kts 18°
2026-05-05 20:11 -26.57563 -69.84228 26023 ft 272 kts 18°
2026-05-05 20:11 -26.55905 -69.83204 26027 ft 272 kts 18°
2026-05-05 20:11 -26.54246 -69.82177 26025 ft 272 kts 18°
2026-05-05 20:11 -26.52587 -69.81152 26026 ft 272 kts 18°
2026-05-05 20:12 -26.50929 -69.80127 26024 ft 272 kts 18°
2026-05-05 20:12 -26.49272 -69.79103 26026 ft 272 kts 18°
2026-05-05 20:12 -26.47613 -69.78078 26029 ft 272 kts 18°
2026-05-05 20:12 -26.45979 -69.77069 26034 ft 272 kts 18°
2026-05-05 20:13 -26.44326 -69.76049 26030 ft 271 kts 18°
2026-05-05 20:13 -26.42675 -69.75030 26030 ft 270 kts 18°
2026-05-05 20:13 -26.41034 -69.74017 26033 ft 269 kts 18°
2026-05-05 20:13 -26.39395 -69.73007 26035 ft 269 kts 18°
2026-05-05 20:14 -26.37753 -69.71996 26037 ft 269 kts 18°
2026-05-05 20:14 -26.36111 -69.70984 26037 ft 270 kts 18°
2026-05-05 20:14 -26.34465 -69.69970 26035 ft 270 kts 18°
2026-05-05 20:14 -26.32818 -69.68956 26035 ft 270 kts 18°
2026-05-05 20:15 -26.31198 -69.67958 26035 ft 269 kts 18°
2026-05-05 20:15 -26.29565 -69.66952 26043 ft 267 kts 18°
2026-05-05 20:15 -26.27934 -69.65950 26042 ft 267 kts 17°
2026-05-05 20:15 -26.26309 -69.64951 26039 ft 266 kts 17°
2026-05-05 20:16 -26.24690 -69.63956 26039 ft 266 kts 17°
2026-05-05 20:16 -26.23076 -69.62963 26043 ft 265 kts 17°
2026-05-05 20:16 -26.21456 -69.61969 26046 ft 266 kts 17°
2026-05-05 20:16 -26.19834 -69.60973 26045 ft 266 kts 17°
2026-05-05 20:17 -26.18211 -69.59976 26045 ft 267 kts 18°
2026-05-05 20:17 -26.16602 -69.58988 26047 ft 267 kts 18°
2026-05-05 20:17 -26.14966 -69.57985 26044 ft 268 kts 17°
2026-05-05 20:17 -26.13338 -69.56984 26051 ft 267 kts 17°
2026-05-05 20:18 -26.11712 -69.55988 26049 ft 267 kts 17°
2026-05-05 20:18 -26.10083 -69.54990 26048 ft 267 kts 17°
2026-05-05 20:18 -26.08453 -69.53991 26052 ft 268 kts 18°
2026-05-05 20:18 -26.06817 -69.52989 26055 ft 268 kts 18°
2026-05-05 20:19 -26.05182 -69.51987 26055 ft 269 kts 18°
2026-05-05 20:19 -26.03543 -69.50984 26060 ft 269 kts 18°
2026-05-05 20:19 -26.01903 -69.49980 26058 ft 269 kts 18°
2026-05-05 20:19 -26.00258 -69.48974 26060 ft 269 kts 18°
2026-05-05 20:20 -25.98617 -69.47970 26063 ft 269 kts 18°
2026-05-05 20:20 -25.96971 -69.46964 26063 ft 270 kts 18°
2026-05-05 20:20 -25.95325 -69.45957 26067 ft 270 kts 18°
2026-05-05 20:20 -25.93678 -69.44951 26070 ft 270 kts 18°
2026-05-05 20:21 -25.92030 -69.43944 26072 ft 270 kts 18°
2026-05-05 20:21 -25.90405 -69.42952 26073 ft 270 kts 18°
2026-05-05 20:21 -25.88760 -69.41948 26075 ft 270 kts 18°
2026-05-05 20:21 -25.87110 -69.40941 26076 ft 270 kts 18°
2026-05-05 20:22 -25.85461 -69.39935 26079 ft 271 kts 18°
2026-05-05 20:22 -25.83806 -69.38926 26080 ft 271 kts 18°
2026-05-05 20:22 -25.82151 -69.37917 26086 ft 271 kts 18°
2026-05-05 20:22 -25.80497 -69.36908 26086 ft 271 kts 18°
2026-05-05 20:23 -25.78844 -69.35901 26088 ft 271 kts 18°
2026-05-05 20:23 -25.77190 -69.34894 26090 ft 271 kts 18°
2026-05-05 20:23 -25.75536 -69.33886 26097 ft 271 kts 18°
2026-05-05 20:23 -25.73881 -69.32879 26093 ft 271 kts 18°
2026-05-05 20:24 -25.72224 -69.31871 26096 ft 272 kts 18°
2026-05-05 20:24 -25.70591 -69.30878 26101 ft 272 kts 18°
2026-05-05 20:24 -25.68932 -69.29868 26103 ft 271 kts 18°
2026-05-05 20:24 -25.67274 -69.28860 26101 ft 271 kts 18°
2026-05-05 20:25 -25.65619 -69.27855 26104 ft 271 kts 18°
2026-05-05 20:25 -25.63962 -69.26848 26105 ft 271 kts 18°
2026-05-05 20:25 -25.62309 -69.25844 26109 ft 271 kts 18°
2026-05-05 20:25 -25.60653 -69.24839 26110 ft 271 kts 18°
2026-05-05 20:26 -25.58998 -69.23835 26113 ft 270 kts 18°
2026-05-05 20:26 -25.57296 -69.23132 26128 ft 253 kts 360°
2026-05-05 20:26 -25.55569 -69.22826 26125 ft 251 kts 358°
2026-05-05 20:26 -25.53834 -69.22526 26128 ft 252 kts 359°
2026-05-05 20:27 -25.52100 -69.22215 26128 ft 253 kts 359°
2026-05-05 20:27 -25.50363 -69.21902 26126 ft 253 kts 359°
2026-05-05 20:27 -25.48619 -69.21589 26122 ft 253 kts 359°
2026-05-05 20:27 -25.46900 -69.21282 26122 ft 253 kts 359°
2026-05-05 20:28 -25.45159 -69.20972 26122 ft 253 kts 359°
2026-05-05 20:28 -25.43423 -69.20662 26120 ft 253 kts 359°
2026-05-05 20:28 -25.41682 -69.20351 26121 ft 253 kts 359°
2026-05-05 20:28 -25.39941 -69.20040 26119 ft 253 kts 359°
2026-05-05 20:29 -25.38202 -69.19730 26118 ft 253 kts 359°
2026-05-05 20:29 -25.36459 -69.19419 26117 ft 253 kts 359°
2026-05-05 20:29 -25.34720 -69.19109 26116 ft 253 kts 359°
2026-05-05 20:29 -25.32978 -69.18799 26115 ft 253 kts 359°
2026-05-05 20:30 -25.31237 -69.18488 26116 ft 253 kts 359°
2026-05-05 20:30 -25.29493 -69.18178 26117 ft 255 kts 359°
2026-05-05 20:30 -25.27759 -69.17869 26114 ft 256 kts 359°
2026-05-05 20:30 -25.26005 -69.17556 26113 ft 254 kts 359°
2026-05-05 20:31 -25.24260 -69.17244 26110 ft 254 kts 359°
2026-05-05 20:31 -25.22519 -69.16935 26111 ft 253 kts 359°
2026-05-05 20:31 -25.20775 -69.16626 26109 ft 253 kts 359°
2026-05-05 20:31 -25.19039 -69.16317 26103 ft 253 kts 359°
2026-05-05 20:32 -25.17301 -69.16008 26105 ft 253 kts 359°
2026-05-05 20:32 -25.15563 -69.15699 26103 ft 253 kts 359°
2026-05-05 20:32 -25.13829 -69.15391 26099 ft 253 kts 359°
2026-05-05 20:32 -25.12089 -69.15082 26099 ft 253 kts 360°
2026-05-05 20:33 -25.10355 -69.14774 26099 ft 253 kts 359°
2026-05-05 20:33 -25.08615 -69.14465 26096 ft 253 kts 360°
2026-05-05 20:33 -25.06878 -69.14157 26096 ft 253 kts 360°
2026-05-05 20:33 -25.05144 -69.13849 26095 ft 253 kts 360°
2026-05-05 20:34 -25.03405 -69.13541 26092 ft 253 kts 360°
2026-05-05 20:34 -25.01667 -69.13232 26091 ft 253 kts 360°
2026-05-05 20:34 -24.99932 -69.12925 26090 ft 253 kts 360°
2026-05-05 20:34 -24.98219 -69.12621 26084 ft 253 kts 360°
2026-05-05 20:35 -24.96484 -69.12313 26083 ft 252 kts 360°
2026-05-05 20:35 -24.94750 -69.12006 26079 ft 252 kts 360°
2026-05-05 20:35 -24.93017 -69.11699 26080 ft 252 kts 360°
2026-05-05 20:35 -24.91288 -69.11393 26084 ft 252 kts
2026-05-05 20:36 -24.89554 -69.11087 26079 ft 252 kts
2026-05-05 20:36 -24.87815 -69.10780 26082 ft 254 kts
2026-05-05 20:36 -24.86059 -69.10469 26073 ft 256 kts
2026-05-05 20:36 -24.84302 -69.10158 26069 ft 255 kts
2026-05-05 20:37 -24.82552 -69.09847 26066 ft 254 kts
2026-05-05 20:37 -24.81394 -69.09643 26064 ft 254 kts
2026-05-05 20:37 -24.79064 -69.09232 26061 ft 253 kts
2026-05-05 20:37 -24.77350 -69.08929 26060 ft 253 kts
2026-05-05 20:38 -24.75614 -69.08622 26059 ft 252 kts
2026-05-05 20:38 -24.73881 -69.08317 26058 ft 252 kts
2026-05-05 20:38 -24.72147 -69.08011 26055 ft 252 kts
2026-05-05 20:38 -24.70413 -69.07705 26052 ft 252 kts
2026-05-05 20:39 -24.68681 -69.07399 26051 ft 252 kts
2026-05-05 20:39 -24.66949 -69.07094 26049 ft 252 kts
2026-05-05 20:39 -24.65218 -69.06789 26049 ft 252 kts
2026-05-05 20:39 -24.63486 -69.06484 26046 ft 252 kts
2026-05-05 20:40 -24.61757 -69.06179 26048 ft 252 kts
2026-05-05 20:40 -24.60027 -69.05874 26049 ft 251 kts
2026-05-05 20:40 -24.58300 -69.05570 26045 ft 251 kts
2026-05-05 20:40 -24.56573 -69.05266 26045 ft 251 kts
2026-05-05 20:41 -24.54850 -69.04963 26046 ft 251 kts
2026-05-05 20:41 -24.53123 -69.04659 26039 ft 251 kts
2026-05-05 20:41 -24.51395 -69.04356 26043 ft 251 kts
2026-05-05 20:41 -24.49669 -69.04052 26039 ft 251 kts
2026-05-05 20:42 -24.47940 -69.03748 26033 ft 252 kts
2026-05-05 20:42 -24.46210 -69.03444 26041 ft 252 kts
2026-05-05 20:42 -24.44476 -69.03140 26040 ft 252 kts
2026-05-05 20:42 -24.42756 -69.02839 25953 ft 255 kts
2026-05-05 20:43 -24.40971 -69.02526 25855 ft 257 kts
2026-05-05 20:43 -24.39192 -69.02213 25765 ft 260 kts
2026-05-05 20:43 -24.37419 -69.01898 25663 ft 255 kts
2026-05-05 20:43 -24.35699 -69.01593 25549 ft 252 kts
2026-05-05 20:44 -24.33979 -69.01293 25430 ft 249 kts
2026-05-05 20:44 -24.32270 -69.00996 25313 ft 250 kts
2026-05-05 20:44 -24.30537 -69.00696 25201 ft 253 kts
2026-05-05 20:44 -24.28781 -69.00388 25086 ft 256 kts
2026-05-05 20:45 -24.25237 -68.99765 24858 ft 260 kts
2026-05-05 20:45 -24.23445 -68.99452 24741 ft 261 kts
2026-05-05 20:45 -24.21645 -68.99136 24625 ft 262 kts
2026-05-05 20:46 -24.19844 -68.98821 24514 ft 263 kts
2026-05-05 20:46 -24.18037 -68.98505 24401 ft 263 kts
2026-05-05 20:46 -24.16225 -68.98188 24292 ft 264 kts
2026-05-05 20:46 -24.14412 -68.97871 24177 ft 264 kts
2026-05-05 20:47 -24.12596 -68.97553 24068 ft 264 kts
2026-05-05 20:47 -24.10776 -68.97236 23956 ft 265 kts
2026-05-05 20:47 -24.08980 -68.96922 23845 ft 265 kts
2026-05-05 20:47 -24.07162 -68.96604 23731 ft 263 kts
2026-05-05 20:48 -24.05357 -68.96288 23619 ft 262 kts
2026-05-05 20:48 -24.03551 -68.95974 23491 ft 262 kts
2026-05-05 20:48 -24.01742 -68.95659 23360 ft 262 kts
2026-05-05 20:48 -23.99941 -68.95344 23223 ft 262 kts
2026-05-05 20:49 -23.98139 -68.95030 23088 ft 261 kts
2026-05-05 20:49 -23.96343 -68.94717 22964 ft 261 kts
2026-05-05 20:49 -23.94545 -68.94404 22828 ft 261 kts
2026-05-05 20:49 -23.93354 -68.94196 22743 ft 261 kts
2026-05-05 20:50 -23.90981 -68.93782 22576 ft 261 kts
2026-05-05 20:50 -23.89768 -68.93571 22483 ft 261 kts
2026-05-05 20:50 -23.87978 -68.93260 22351 ft 260 kts
2026-05-05 20:50 -23.86211 -68.92952 22223 ft 260 kts
2026-05-05 20:51 -23.84425 -68.92642 22096 ft 260 kts
2026-05-05 20:51 -23.82638 -68.92331 21970 ft 260 kts
2026-05-05 20:51 -23.80838 -68.92019 21843 ft 264 kts
2026-05-05 20:51 -23.79018 -68.91702 21720 ft 265 kts
2026-05-05 20:52 -23.77192 -68.91383 21592 ft 266 kts
2026-05-05 20:52 -23.75367 -68.91066 21468 ft 266 kts
2026-05-05 20:52 -23.73536 -68.90749 21345 ft 267 kts
2026-05-05 20:52 -23.71697 -68.90429 21221 ft 267 kts
2026-05-05 20:53 -23.69862 -68.90110 21101 ft 267 kts
2026-05-05 20:53 -23.68021 -68.89791 20977 ft 268 kts
2026-05-05 20:53 -23.66181 -68.89472 20858 ft 268 kts
2026-05-05 20:53 -23.64361 -68.89156 20736 ft 268 kts
2026-05-05 20:54 -23.62519 -68.88836 20610 ft 267 kts
2026-05-05 20:54 -23.60682 -68.88518 20500 ft 267 kts
2026-05-05 20:54 -23.58849 -68.88200 20378 ft 266 kts
2026-05-05 20:54 -23.57019 -68.87883 20260 ft 266 kts
2026-05-05 20:55 -23.55189 -68.87566 20141 ft 266 kts
2026-05-05 20:55 -23.53358 -68.87249 20021 ft 266 kts
2026-05-05 20:55 -23.51527 -68.86932 19906 ft 266 kts
2026-05-05 20:55 -23.49699 -68.86615 19791 ft 266 kts
2026-05-05 20:56 -23.47869 -68.86298 19671 ft 266 kts
2026-05-05 20:56 -23.46045 -68.85981 19615 ft 263 kts
2026-05-05 20:56 -23.44245 -68.85670 19564 ft 261 kts
2026-05-05 20:56 -23.42456 -68.85361 19524 ft 260 kts
2026-05-05 20:57 -23.40693 -68.85057 19479 ft 259 kts
2026-05-05 20:57 -23.38918 -68.84750 19435 ft 258 kts
2026-05-05 20:57 -23.37145 -68.84443 19387 ft 257 kts
2026-05-05 20:57 -23.35383 -68.84138 19341 ft 256 kts
2026-05-05 20:58 -23.33633 -68.83764 19297 ft 256 kts
2026-05-05 20:58 -23.31878 -68.83457 19248 ft 255 kts
2026-05-05 20:58 -23.30125 -68.83140 19209 ft 256 kts
2026-05-05 20:58 -23.28374 -68.82794 19159 ft 256 kts
2026-05-05 20:59 -23.26613 -68.82445 19062 ft 258 kts
2026-05-05 20:59 -23.24828 -68.82100 18926 ft 261 kts
2026-05-05 20:59 -23.23053 -68.81759 18805 ft 263 kts
2026-05-05 20:59 -23.21222 -68.81406 18662 ft 264 kts
2026-05-05 21:00 -23.19431 -68.81059 18526 ft 265 kts
2026-05-05 21:00 -23.17614 -68.80708 18380 ft 265 kts
2026-05-05 21:00 -23.15794 -68.80357 18249 ft 265 kts
2026-05-05 21:00 -23.13976 -68.80006 18095 ft 265 kts
2026-05-05 21:01 -23.12161 -68.79656 17946 ft 265 kts
2026-05-05 21:01 -23.10341 -68.79305 17773 ft 266 kts
2026-05-05 21:01 -23.08514 -68.78952 17600 ft 266 kts
2026-05-05 21:01 -23.06688 -68.78601 17424 ft 266 kts
2026-05-05 21:02 -23.04865 -68.78250 17248 ft 266 kts
2026-05-05 21:02 -23.03044 -68.77901 17076 ft 266 kts
2026-05-05 21:02 -23.01221 -68.77552 16905 ft 266 kts
2026-05-05 21:02 -22.99401 -68.77203 16732 ft 265 kts
2026-05-05 21:03 -22.97586 -68.76854 16555 ft 264 kts
2026-05-05 21:03 -22.95800 -68.76511 16357 ft 264 kts
2026-05-05 21:03 -22.93985 -68.76163 16139 ft 265 kts
2026-05-05 21:03 -22.92170 -68.75816 15926 ft 265 kts
2026-05-05 21:04 -22.90347 -68.75468 15712 ft 266 kts
2026-05-05 21:04 -22.88519 -68.75118 15500 ft 266 kts
2026-05-05 21:04 -22.86692 -68.74769 15291 ft 267 kts
2026-05-05 21:04 -22.84866 -68.74420 15081 ft 267 kts
2026-05-05 21:05 -22.83037 -68.74070 14871 ft 266 kts
2026-05-05 21:05 -22.81213 -68.73723 14668 ft 266 kts 10°
2026-05-05 21:05 -22.79392 -68.73377 14460 ft 266 kts 10°
2026-05-05 21:05 -22.77575 -68.73034 14261 ft 265 kts 10°
2026-05-05 21:06 -22.75753 -68.72690 14036 ft 264 kts 11°
2026-05-05 21:06 -22.73953 -68.72351 13887 ft 259 kts 11°
2026-05-05 21:06 -22.72199 -68.72021 13790 ft 253 kts 11°
2026-05-05 21:06 -22.70479 -68.71699 13689 ft 249 kts 11°
2026-05-05 21:07 -22.68801 -68.71385 13587 ft 246 kts 11°
2026-05-05 21:07 -22.67119 -68.71070 13489 ft 245 kts 11°
2026-05-05 21:07 -22.65446 -68.70759 13390 ft 244 kts 11°
2026-05-05 21:07 -22.63780 -68.70449 13302 ft 242 kts 11°
2026-05-05 21:08 -22.62124 -68.70140 13230 ft 241 kts 11°
2026-05-05 21:08 -22.60475 -68.69833 13155 ft 240 kts 11°
2026-05-05 21:08 -22.58829 -68.69528 13086 ft 240 kts 11°
2026-05-05 21:08 -22.57182 -68.69222 13032 ft 239 kts 10°
2026-05-05 21:09 -22.55540 -68.68918 12888 ft 242 kts 10°
2026-05-05 21:09 -22.53853 -68.68638 12452 ft 245 kts
2026-05-05 21:09 -22.52257 -68.69177 12025 ft 242 kts 322°
2026-05-05 21:09 -22.51355 -68.70626 11583 ft 236 kts 283°
2026-05-05 21:10 -22.51186 -68.72360 11139 ft 229 kts 270°
2026-05-05 21:10 -22.51172 -68.74061 10670 ft 224 kts 268°
2026-05-05 21:10 -22.51197 -68.75723 10318 ft 214 kts 269°
2026-05-05 21:10 -22.51063 -68.77234 10277 ft 192 kts 276°
2026-05-05 21:11 -22.50818 -68.78599 10182 ft 168 kts 277°
2026-05-05 21:11 -22.50652 -68.79726 9946 ft 143 kts 270°
2026-05-05 21:11 -22.50564 -68.80737 9623 ft 124 kts 270°
2026-05-05 21:11 -22.50549 -68.81635 9299 ft 117 kts 263°
2026-05-05 21:12 -22.50550 -68.82494 9093 ft 111 kts 270°
2026-05-05 21:12 -22.50480 -68.83308 8925 ft 109 kts 268°
2026-05-05 21:12 -22.50424 -68.84123 8692 ft 110 kts 270°
2026-05-05 21:12 -22.50381 -68.84933 8541 ft 108 kts 269°
2026-05-05 21:13 -22.50337 -68.85771 8346 ft 114 kts 266°
2026-05-05 21:13 -22.50274 -68.86634 8138 ft 113 kts 270°
2026-05-05 21:13 -22.50195 -68.87445 8013 ft 104 kts 268°
2026-05-05 21:13 -22.50164 -68.88219 7842 ft 102 kts 270°
2026-05-05 21:14 -22.50111 -68.88968 7653 ft 98 kts 271°
2026-05-05 21:14 -22.50057 -68.89642 7589 ft 83 kts 270°
2026-05-05 21:14 -22.50031 -68.90213 7538 ft 70 kts 276°
2026-05-05 21:14 -22.49990 -68.90671 7495 ft 34 kts 277°
2026-05-05 21:15 -22.49986 -68.90737 7496 ft 3 kts 258°
2026-05-05 21:15 -22.49992 -68.90762 7487 ft 1 kts 255°
2026-05-05 21:15 -22.49961 -68.90790 7482 ft 13 kts 353°
2026-05-05 21:15 -22.49845 -68.90786 7485 ft 14 kts
2026-05-05 21:16 -22.49739 -68.90778 7480 ft 11 kts
2026-05-05 21:16 -22.49679 -68.90775 7486 ft 8 kts 340°
2026-05-05 21:16 -22.49663 -68.90823 7492 ft 6 kts 274°
2026-05-05 21:16 -22.49658 -68.90867 7493 ft 5 kts 275°
2026-05-05 21:17 -22.49635 -68.90882 7488 ft 5 kts 22°
2026-05-05 21:17 -22.49597 -68.90879 7480 ft 6 kts
2026-05-05 21:17 -22.49585 -68.90878 7487 ft 0 kts